Home > Weather > Roanoke > Past weeks

Flag for USA Weather for the Past 2 Weeks in Roanoke, Virginia, USA

Now
55 °F

Low clouds.


Feels Like: 53 °F
Forecast: 57 / 63 °F
Wind: 8 mph from Southeast

Location: Roanoke Regional Airport

Current Time: Apr 30, 2016 at 7:34:09 AM

Latest Report: Apr 30, 2016 at 6:54 AM


Visibility: 10 mi

Pressure: 30.11 "Hg

Humidity: 96%

Dew Point: 54 °F

Location of RoanokeLocation

Historic Weather in Roanoke — Graph

°F

Roanoke Temperature Yesterday

Maximum temperature yesterday: 83 °F (at 4:54 PM)
Minimum temperature yesterday: 57 °F (at 3:54 AM)
Average temperature yesterday: 67 °F

High & Low Weather Summary for the Past Weeks

 TemperatureHumidityPressure
High87 °F (Apr 18, 5:54 PM)100% (Apr 28, 5:54 AM)30.48 "Hg (Apr 28, 5:54 AM)
Low36 °F (Apr 16, 6:54 AM)13% (Apr 18, 5:54 PM)29.74 "Hg (Apr 26, 7:54 PM)
Average65 °F54%30.08 "Hg
* Reported Apr 15 5:54 AM — Apr 30 5:54 AM, Roanoke, Weather by CustomWeather, © 2016

Note: Actual official high and low records may vary slightly from our data, if they occured in-between our weather recording intervals... More about our weather records

Advertising

Roanoke Weather History for the Previous 24 Hours

Scroll right to see more
 ConditionsComfort  
Time TempWeatherWind HumidityBarometerVisibility
5:54 AM
Sat, Apr 30
55 °FMostly cloudy.7 mph96%30.09 "Hg10 mi
4:54 AM56 °FLow clouds.10 mph93%30.08 "Hg10 mi
3:54 AM57 °FLow clouds.8 mph93%30.06 "Hg10 mi
2:54 AM57 °FFog.8 mph96%30.06 "Hg6 mi
1:54 AM58 °FOvercast.7 mph90%30.06 "Hg10 mi
12:54 AM59 °FLow clouds.8 mph90%30.07 "Hg10 mi
11:54 PM
Fri, Apr 29
60 °FLow clouds.10 mph86%30.05 "Hg10 mi
10:54 PM60 °FPassing clouds.8 mph90%30.03 "Hg10 mi
9:54 PM62 °FClear.10 mph86%30.01 "Hg10 mi
8:54 PM65 °FSunny.8 mph81%29.99 "Hg10 mi
7:54 PM69 °FPassing clouds.13 mph73%29.96 "Hg10 mi
6:54 PM73 °FPassing clouds.14 mph64%29.91 "Hg10 mi
5:54 PM82 °FPassing clouds.9 mph26%29.90 "Hg10 mi
4:54 PM83 °FPassing clouds.9 mph26%29.88 "Hg10 mi
3:54 PM82 °FPassing clouds.9 mph28%29.90 "Hg10 mi
2:54 PM80 °FSunny.N/A32%29.92 "Hg10 mi
1:54 PM80 °FSunny.8 mph32%29.93 "Hg10 mi
12:54 PM77 °FScattered clouds.10 mph37%29.96 "Hg10 mi
11:54 AM72 °FPassing clouds.5 mph55%29.97 "Hg10 mi
10:54 AM68 °FPassing clouds.5 mph70%29.98 "Hg10 mi
9:54 AM65 °FScattered clouds.No wind81%29.99 "Hg10 mi
8:54 AM59 °FLow clouds.No wind96%30.01 "Hg10 mi
8:00 AM58 °FLow clouds.No wind97%30.03 "Hg1 mi
Weather by CustomWeather, © 2016

See weather overviewHow to use our weather pages